User: anonymous   Login
Location: Chagrin Falls Park
(41.4139°N, 81.3865°W)
Time: 04:01:59
(UTC+00:00)
Language:

DIWATA 2B (PO-101) - Orbit

View from above orbital plane
View from above orbital plane
View from above satellite
View from above satellite

Ground track
Ground track

The orbit data is extracted from the following two-line orbital elements,

1 43678U 18084H   21289.85995724  .00000751  00000-0  80211-4 0  9999
2 43678  97.9392  55.8771 0010184  19.0202 341.1410 14.91812693161534
Epoch (UTC): 16 October 2021 20:38:20
Eccentricity: 0.0010184
inclination: 97.9392°
perigee height: 585 km
apogee height: 599 km
right ascension of ascending node: 55.8771°
argument of perigee: 19.0202°
revolutions per day: 14.91812693
mean anomaly at epoch: 341.1410°
orbit number at epoch: 16153

The dashed part of the orbit path shows where the satellite is in the earth's shadow,  

DLR